Location: Clyde
(45.1830°S, 169.3170°E)
Time: 17:10:02
(UTC+12:00)

COSMO-SKYMED 1 - Pass Details

Date: 14 May 2021
Orbit: 621 x 623 km, 97.9° (Epoch: 16 June)

Event Time Altitude Azimuth Distance (km) Brightness Sun altitude
Rises 17:59:10 0° 10° (N) 2,898 6.1 -6.4°
Reaches altitude 10° 18:01:21 10° 7° (N) 2,000 5.3 -6.8°
Maximum altitude 18:05:42 73° 283° (WNW) 665 2.9 -7.5°
Drops below altitude 10° 18:10:07 10° 197° (SSW) 2,030 5.2 -8.2°
Sets 18:12:21 0° 194° (SSW) 2,946 6.0 -8.6°
